Location: Napier
(39.4830°S, 176.9170°E)
Time: 02:18:04
(UTC+12:00)

Cosmos 1339 Rocket - Pass Details

Date: 15 August 2020
Orbit: 941 x 1006 km, 82.9° (Epoch: 19 September)

Event Time Altitude Azimuth Distance (km) Brightness Sun altitude
Rises 19:59:53 0° 352° (N) 3,619 7.5 -28.6°
Reaches altitude 10° 20:02:22 10° 351° (N) 2,675 6.8 -29.0°
Maximum altitude 20:08:29 81° 263° (W) 968 4.4 -30.2°
Drops below altitude 10° 20:14:39 10° 175° (S) 2,690 6.8 -31.4°
Sets 20:17:10 0° 173° (S) 3,642 7.5 -31.9°
